Location: *
(37.9500°N, 27.3666°E)
Time: 13:14:42
(UTC+00:00)

Cosmos 2251 Rocket - Pass Details

Date: 24 October 2021
Orbit: 765 x 791 km, 74.0° (Epoch: 02 December)

Event Time Altitude Azimuth Distance (km) Brightness Sun altitude
Rises 16:32:16 0° 349° (NNW) 3,245 6.8 -14.7°
Reaches altitude 10° 16:34:47 10° 356° (N) 2,312 6.0 -15.2°
Maximum altitude 16:39:43 41° 67° (ENE) 1,107 3.9 -16.2°
Enters shadow 16:42:55 20° 127° (SE) 1,718 4.9 -16.8°
